Theta_e
308 308 308 309 310 310 311 312 314 316 318 318 318 317 316 316 316 318 322 326 328 327 325 328 333 336 338 337 337 337 334 334 337 337 338 336 337 338 337 337 334 334 343 342 339
307 308 307 309 310 310 310 311 313 316 318 318 318 316 315 316 317 322 325 327 326 327 327 331 333 336 336 338 337 335 334 334 336 339 336 337 337 339 341 337 337 335 340 339 338
308 308 308 308 309 310 310 311 313 316 318 318 317 316 315 315 328 328 327 326 327 327 326 329 336 338 340 338 336 334 331 331 334 336 337 337 340 340 343 341 338 336 335 335 336
307 308 308 308 309 310 310 311 313 316 318 318 317 315 315 317 331 328 326 327 327 326 328 330 335 338 341 339 336 337 335 335 333 334 336 339 339 341 340 341 338 336 335 335 335
307 307 308 308 309 310 311 311 313 316 318 318 317 315 316 327 325 329 326 326 327 326 328 329 330 337 341 337 338 336 338 335 335 336 337 340 340 341 342 341 340 338 337 335 334
307 307 308 308 309 309 311 312 314 316 318 318 318 316 324 325 332 329 326 327 327 331 331 329 326 333 336 337 338 337 337 337 337 337 338 340 341 344 344 343 342 338 336 335 335
307 307 308 308 309 310 311 313 315 317 319 318 318 316 324 325 333 333 332 333 331 331 327 329 329 328 330 338 337 338 340 340 339 340 340 337 340 341 345 343 343 341 338 336 333
307 308 308 308 309 310 312 315 317 318 319 318 319 318 325 330 330 333 332 333 332 331 329 329 330 328 332 335 337 339 342 345 340 339 340 339 343 342 339 340 345 343 341 338 333
308 308 308 308 309 310 313 319 321 320 319 318 320 322 327 330 329 330 332 332 332 330 330 331 330 328 329 333 334 338 340 345 342 337 344 345 347 344 346 343 343 343 342 340 338
308 308 308 309 310 311 316 320 324 322 323 320 323 326 326 328 330 330 331 332 331 330 328 329 327 328 331 331 336 339 338 337 339 338 343 346 349 345 350 345 342 342 343 342 340
310 308 309 309 310 312 318 322 319 324 322 325 325 327 331 330 330 330 331 332 331 330 329 329 329 331 328 331 334 334 337 338 339 340 341 343 343 342 343 344 347 345 344 339 339
311 309 309 309 311 316 318 321 319 320 319 321 323 324 326 328 329 329 329 331 331 330 329 329 330 331 331 329 335 335 336 336 342 342 344 346 344 341 341 339 342 344 345 338 334
311 310 308 310 313 319 318 320 319 322 321 324 324 324 326 327 328 328 327 330 329 329 330 331 331 334 332 329 335 336 335 334 341 339 341 344 348 344 340 340 342 342 341 336 333
310 311 309 309 316 314 320 319 318 321 324 328 326 324 326 327 328 329 329 329 329 329 329 330 329 331 331 333 329 330 333 337 341 340 346 340 349 346 342 344 344 341 338 335 335
309 310 310 308 312 317 320 319 319 322 339 328 324 325 324 326 328 329 329 329 328 329 330 329 329 329 328 331 330 332 335 337 341 343 342 345 344 345 346 345 346 343 338 335 336
309 310 310 310 313 316 317 318 320 327 338 325 322 322 322 325 326 328 329 329 329 329 328 328 328 328 327 329 330 333 336 340 338 342 348 341 344 346 346 348 346 344 339 336 336
309 310 309 310 313 315 318 320 327 335 334 324 322 321 322 326 326 328 330 330 328 331 331 330 331 328 329 329 328 331 336 339 339 345 349 340 340 337 342 344 339 335 338 337 334
309 310 314 318 319 318 320 325 336 338 330 327 324 322 322 324 326 328 330 329 329 330 329 329 331 329 331 331 329 331 338 337 343 341 342 343 348 339 340 338 339 336 338 338 333
309 310 315 318 322 321 322 334 336 335 331 329 325 323 322 322 326 327 329 329 329 328 330 331 333 329 332 331 331 332 336 334 340 339 343 347 346 340 340 342 342 342 337 336 333
310 315 321 322 323 321 326 331 335 333 329 329 330 328 326 324 325 327 329 331 331 330 328 330 329 330 335 335 334 337 335 333 339 343 346 347 347 344 342 343 343 340 338 335 333
315 324 323 323 322 324 327 329 330 330 328 331 334 336 329 328 325 327 330 330 331 329 328 330 332 334 337 337 336 335 335 342 338 344 347 345 344 338 346 341 337 341 336 334 331
317 323 325 323 324 325 324 327 325 329 329 328 331 336 338 337 329 329 330 331 330 331 332 333 335 336 339 335 334 336 340 341 346 343 344 343 345 342 343 339 339 340 336 334 331
318 323 322 324 325 324 327 330 330 329 331 334 335 335 335 337 331 329 337 335 332 330 337 342 336 338 342 335 337 338 336 335 337 337 341 339 345 343 340 337 335 335 335 334 333
317 326 323 326 324 325 326 329 334 328 329 331 334 335 336 336 333 337 335 334 335 337 334 343 344 347 341 337 337 339 340 336 331 335 336 342 342 343 341 340 338 338 335 336 333
319 325 329 330 329 332 328 329 331 335 330 331 334 336 339 339 343 344 343 337 336 334 334 346 348 339 339 338 338 338 337 334 333 334 340 341 340 340 337 337 337 334 335 337 335
318 324 324 324 331 333 332 331 332 333 334 331 334 336 339 345 341 341 344 341 340 338 334 339 341 345 342 340 337 341 336 333 334 338 336 338 341 338 338 337 341 340 340 339 339
319 320 324 325 327 328 329 331 331 331 333 333 335 336 340 341 340 337 337 340 337 336 335 342 343 341 341 341 340 343 337 337 334 337 342 347 345 341 340 339 340 339 340 339 338
Wind_Speed
27 28 28 27 27 27 26 26 26 25 25 21 13 10 10 12 14 12 5 6 6 6 8 9 14 19 21 7 11 3 4 1 4 7 5 6 8 3 6 9 4 7 11 17 17
27 29 30 27 27 27 27 26 25 24 24 20 14 11 11 13 16 12 16 10 3 5 6 8 8 2 2 4 5 2 5 3 6 6 3 5 10 9 6 13 6 10 17 22 15
26 27 29 28 27 27 27 26 25 22 23 19 15 10 11 12 5 6 7 8 3 3 10 6 6 3 6 3 5 5 4 5 6 4 1 6 6 4 7 5 11 16 11 12 16
27 27 29 30 28 27 28 26 24 21 21 19 14 11 11 4 3 1 9 6 2 6 9 4 2 1 4 6 7 9 11 8 3 5 3 8 3 6 11 8 13 14 14 10 8
28 28 28 30 29 28 27 27 23 20 20 16 14 12 6 2 9 8 7 5 5 8 10 8 7 3 4 11 6 8 5 6 10 4 7 11 13 4 9 14 13 15 13 11 9
28 29 29 30 30 30 28 26 21 20 20 14 13 12 1 5 6 4 8 5 7 11 17 13 6 6 7 4 4 7 11 13 8 6 4 6 8 7 3 7 12 12 10 9 10
30 31 30 31 31 30 29 24 22 20 19 11 11 8 5 11 2 3 6 7 11 18 8 22 21 7 9 3 7 14 10 13 12 12 4 7 8 4 5 12 10 10 8 9 10
31 31 31 32 31 31 29 24 23 19 15 9 10 3 7 8 12 10 9 14 19 20 19 20 20 7 4 3 8 8 6 3 11 11 8 7 10 15 11 10 9 10 9 8 10
31 32 32 33 32 32 27 25 23 12 10 7 6 3 8 2 7 13 13 13 17 18 18 20 12 7 11 6 4 3 3 8 8 9 7 4 3 10 19 23 7 9 9 10 9
32 33 33 33 31 31 27 26 11 5 5 6 8 4 8 6 11 15 12 8 9 9 10 5 8 5 9 3 4 6 5 5 5 8 17 14 7 12 7 10 9 9 9 7 10
33 34 35 34 30 25 27 13 8 4 1 8 4 8 5 15 9 4 6 9 7 5 7 9 6 6 9 5 5 6 3 6 8 19 19 22 9 5 4 14 14 12 29 4 2
32 35 36 33 29 19 17 6 6 9 8 14 14 17 24 15 6 4 10 4 5 8 9 10 6 4 3 8 5 7 6 5 15 12 13 15 14 6 10 2 13 6 13 8 7
31 34 36 34 20 10 20 10 16 17 3 9 10 9 5 1 4 5 7 5 7 10 12 7 13 16 9 8 4 2 9 6 6 7 7 3 5 5 3 5 9 9 10 7 10
32 33 34 38 8 26 11 18 19 15 2 6 9 7 8 4 5 14 19 8 4 8 9 6 11 19 17 9 8 6 8 9 9 5 1 5 2 2 4 7 9 12 13 7 9
32 32 33 28 16 11 13 24 19 9 3 9 9 8 8 9 2 4 19 4 7 9 6 10 11 16 17 10 6 1 8 6 4 5 6 1 3 3 7 7 20 22 16 8 9
32 31 35 15 17 13 25 23 16 2 5 5 6 9 8 9 8 4 5 6 4 7 10 10 12 8 11 14 6 2 6 6 6 4 1 8 6 2 7 8 17 8 9 7 9
33 31 34 21 7 15 17 12 3 3 4 9 6 7 10 8 7 7 6 2 3 2 4 11 8 12 14 8 9 4 6 4 5 3 5 10 7 3 10 12 15 3 2 4 9
35 33 17 18 11 10 17 3 3 10 4 3 10 11 8 7 9 9 5 2 7 6 2 5 11 9 16 18 10 1 8 5 4 4 3 13 3 2 5 7 6 4 4 5 9
35 26 14 14 4 2 3 2 4 8 11 12 3 8 8 10 7 10 9 7 7 8 8 4 6 12 16 5 10 9 5 6 4 2 4 1 6 1 10 7 13 13 7 7 8
24 13 11 2 10 2 1 5 5 9 7 8 8 5 9 10 9 7 8 10 11 7 6 8 3 5 6 10 13 7 1 6 4 3 3 3 2 3 9 7 0 3 7 5 7
9 4 3 7 4 2 2 6 11 12 4 5 8 8 8 7 13 8 8 6 9 6 3 2 4 6 6 2 4 5 4 8 2 1 4 4 3 3 2 4 7 10 5 7 8
7 3 11 7 2 3 4 5 6 10 9 6 7 7 6 9 8 8 9 8 5 5 2 4 3 2 2 7 4 7 8 7 4 5 5 4 5 4 8 9 17 9 9 5 8
4 4 8 11 2 3 7 12 18 5 10 5 6 7 6 5 6 6 6 3 6 3 4 4 2 3 10 8 4 3 5 3 3 3 3 4 4 11 9 11 15 14 9 3 6
3 3 3 2 4 5 5 11 11 7 7 8 8 10 4 6 3 4 5 5 4 4 5 6 2 2 4 10 4 4 4 8 7 3 1 4 4 6 13 10 3 6 7 4 8
3 4 2 3 3 7 6 9 13 8 7 5 6 7 3 2 7 8 11 6 9 7 3 3 1 5 9 9 7 8 9 13 12 5 7 6 8 3 6 7 5 8 6 7 2
3 4 4 5 8 8 6 4 9 15 8 7 5 7 5 6 9 7 3 4 4 6 4 8 2 4 6 7 7 6 13 13 19 15 6 8 8 5 8 10 11 9 9 6 5
11 13 3 5 5 5 5 7 12 10 12 8 10 6 10 4 10 7 8 6 6 4 3 1 3 2 4 4 4 4 1 2 6 4 5 8 3 9 12 11 6 8 7 7 8
Wind_Direction
358 356 356 357 356 353 353 350 349 350 350 347 340 318 311 312 310 298 247 280 213 309 327 323 282 263 272 301 287 226 44 81 47 111 167 160 117 141 149 132 98 90 107 123 136
356 352 355 352 352 350 349 346 345 346 348 346 341 332 325 323 315 268 263 250 250 338 319 307 328 6 111 297 296 202 133 75 80 99 126 124 142 156 156 131 119 99 113 128 141
353 349 346 351 349 346 345 343 341 341 344 343 341 341 329 334 322 248 217 203 217 291 279 294 284 24 358 332 288 321 126 140 84 49 182 113 123 157 97 107 152 143 141 138 154
352 348 345 348 346 343 341 339 336 336 340 339 338 335 328 332 319 27 163 187 240 270 280 260 228 73 331 305 299 27 9 28 120 128 309 112 262 128 125 148 116 133 138 135 150
349 348 344 343 342 340 337 334 331 330 334 329 332 334 339 234 248 250 189 183 243 272 251 226 208 115 268 265 258 56 313 14 329 329 294 52 43 341 122 113 112 129 133 148 169
348 346 344 342 339 337 334 329 327 325 327 318 327 329 261 266 217 197 209 204 238 250 270 275 310 184 204 84 94 209 38 349 307 313 20 95 86 110 302 5 120 126 148 165 162
349 344 344 341 338 335 332 326 324 320 321 306 319 326 267 241 292 263 209 250 281 259 278 300 308 353 302 107 70 42 19 352 328 25 268 97 8 253 304 325 140 140 156 171 169
350 345 342 340 337 332 330 325 320 313 312 288 310 302 250 273 251 217 259 247 271 264 266 281 289 306 278 215 102 94 68 83 285 260 278 64 307 300 289 313 152 149 170 174 191
349 346 341 339 335 332 327 325 315 309 308 285 303 204 272 259 234 239 243 260 298 317 315 309 268 228 302 290 32 232 191 203 270 290 139 116 201 249 334 324 207 171 184 188 195
347 346 341 339 335 333 325 335 334 299 322 283 261 300 272 259 259 219 219 255 284 306 334 311 306 283 230 140 175 233 229 223 227 328 60 90 132 112 198 230 71 341 324 205 193
347 347 341 338 334 331 333 352 354 27 272 260 312 267 274 248 268 143 242 229 265 304 292 296 330 311 11 212 186 29 269 233 63 106 86 57 1 39 249 49 359 339 1 281 278
346 346 341 338 332 328 331 346 344 291 306 288 274 273 263 298 214 220 251 217 279 271 286 312 273 326 344 295 83 334 334 19 108 110 93 114 239 61 6 119 210 248 248 275 85
344 344 340 337 329 348 333 334 347 359 285 287 229 248 248 198 296 274 225 201 253 282 291 313 306 315 319 311 65 241 27 43 105 103 89 105 10 15 341 306 295 282 264 258 94
338 340 339 339 338 330 326 355 346 348 330 250 188 230 210 209 270 274 280 191 250 275 307 303 329 329 330 339 63 3 11 34 55 71 51 111 79 221 16 318 325 298 304 120 96
332 335 333 338 306 315 313 333 332 326 343 160 172 202 188 188 187 253 262 123 218 275 326 294 325 319 319 296 15 322 59 20 103 44 45 71 187 59 66 347 342 304 276 115 113
327 329 328 331 310 291 317 321 312 25 251 126 146 178 179 204 222 303 10 46 23 330 306 290 299 274 285 318 286 300 67 64 65 100 263 278 162 165 159 152 235 256 338 96 118
323 323 317 298 255 319 336 316 359 233 198 133 171 161 192 191 211 230 175 204 178 271 319 317 294 281 278 302 310 257 69 355 14 24 216 8 58 185 186 193 227 218 237 336 106
323 325 314 284 286 304 309 355 258 281 51 42 154 161 191 198 207 240 129 245 281 248 251 259 312 317 319 298 215 315 118 128 278 328 328 34 304 33 168 250 260 202 250 243 132
326 328 286 275 264 338 41 290 251 331 357 358 291 152 199 204 174 203 196 216 232 212 183 252 277 323 330 12 56 321 64 169 136 106 74 18 299 28 162 214 254 221 268 208 131
326 316 279 84 173 97 39 258 275 302 347 333 327 266 184 192 185 197 211 222 232 242 177 236 322 301 7 10 5 65 342 20 39 352 35 233 221 283 330 335 130 301 116 49 143
317 301 154 168 116 74 214 258 303 314 6 344 316 307 282 197 185 204 199 236 203 230 11 19 100 304 39 30 290 356 11 48 83 180 172 173 237 183 21 53 6 278 233 120 104
320 287 179 171 43 219 226 248 285 325 308 253 289 302 349 342 190 179 195 198 110 94 49 336 135 339 209 248 232 119 136 114 130 270 225 108 269 156 193 212 206 254 254 115 128
305 271 291 175 241 259 306 303 289 285 298 319 328 313 348 337 17 352 81 65 64 88 94 354 355 28 336 346 356 139 196 144 167 301 311 88 265 181 198 221 239 263 122 143 112
289 292 273 158 227 276 302 291 304 215 261 305 305 319 318 317 354 321 129 151 104 92 112 90 344 158 178 238 258 313 282 200 176 127 243 169 200 132 196 204 69 100 168 158 151
239 259 347 329 316 308 234 283 304 309 195 279 296 287 303 26 28 7 8 108 67 25 28 95 276 7 325 38 44 23 337 47 34 346 90 186 85 66 65 76 22 2 345 96 200
293 353 343 289 292 302 297 284 300 298 324 227 260 308 61 311 152 252 54 33 241 339 51 330 251 8 323 7 34 57 35 25 61 324 39 73 59 69 48 48 58 48 35 30 13
341 336 312 281 302 311 276 301 288 293 302 315 357 338 59 202 185 208 150 170 136 220 111 291 336 30 277 25 336 17 247 313 304 352 53 70 69 44 34 23 37 36 19 354 340